GW7428 Weather Reports


time (UTC)temp
C
wind
direction
speed
KPH
gust
KPH
rain 1hr
cm
rain 24hr
cm
rain mn
cm
humidity
%
barometer
mb
20260906231535 18 22 3.2 12.9 0.00 0.13 0.05 100 1015.6
20260906230037 17 306 4.8 11.3 0.00 0.13 0.05 100 1015.9
20260906224539 17 257 6.4 12.9 0.00 0.13 0.05 100 1016.0
20260906223054 17 301 9.7 12.9 0.00 0.13 0.05 100 1016.2
20260906221536 17 261 4.8 9.7 0.00 0.13 0.05 100 1016.1
20260906220040 17 53 8.0 16.1 0.00 0.13 0.05 100 1016.1
20260906214544 17 74 3.2 11.3 0.00 0.13 0.05 100 1016.1
20260906213035 17 60 8.0 16.1 0.00 0.13 0.05 100 1016.1
20260906211545 17 43 11.3 19.3 0.00 0.13 0.05 100 1016.1
20260906210059 17 54 12.9 20.9 0.00 0.13 0.05 100 1015.9
20260906204544 17 37 17.7 22.5 0.00 0.13 0.05 100 1016.0
20260906203040 17 39 17.7 25.7 0.00 0.13 0.05 100 1016.0
20260906201547 17 47 17.7 25.7 0.00 0.13 0.05 100 1016.2
20260906200040 17 42 20.9 25.7 0.00 0.13 0.05 100 1016.4
20260906194536 17 34 14.5 22.5 0.00 0.13 0.05 100 1016.4
20260906193036 17 37 16.1 27.4 0.00 0.13 0.05 100 1016.3
20260906191548 17 46 20.9 30.6 0.00 0.13 0.05 4 1016.3
20260906190038 17 37 24.1 37.0 0.00 0.13 0.05 13 1016.3
20260906184536 17 47 25.7 32.2 0.00 0.13 0.05 15 1016.1
20260906183037 16 29 17.7 27.4 0.00 0.13 0.05 100 1016.5
20260906181538 15 28 17.7 24.1 0.03 0.13 0.05 100 1016.4
20260906180057 15 328 9.7 14.5 0.03 0.13 0.05 100 1017.2
20260906174550 14 323 4.8 17.7 0.03 0.13 0.05 100 1017.5
20260906173036 14 281 3.2 6.4 0.03 0.13 0.05 100 1018.2
20260906171537 15 240 8.0 12.9 0.00 0.10 0.03 100 1018.5
20260906170039 15 40 6.4 14.5 0.00 0.10 0.03 100 1018.4
20260906164537 15 34 11.3 14.5 0.00 0.10 0.03 100 1018.4
20260906163038 15 78 3.2 4.8 0.00 0.10 0.03 100 1018.4
20260906161538 14 37 3.2 6.4 0.03 0.10 0.03 100 1018.2
20260906160039 13 343 1.6 8.0 0.03 0.10 0.03 100 1018.3
20260906154539 13 359 9.7 17.7 0.03 0.10 0.03 100 1018.7
20260906153044 13 338 11.3 22.5 0.03 0.10 0.03 100 1018.9
20260906151548 12 331 19.3 30.6 0.00 0.08 0.00 100 1019.0
20260906150037 12 301 17.7 27.4 0.00 0.08 0.00 100 1018.8
20260906144541 12 302 22.5 33.8 0.00 0.10 0.00 100 1019.3
20260906143046 15 290 11.3 20.9 0.00 0.10 0.00 100 1019.5
20260906141538 15 13 16.1 24.1 0.00 0.10 0.00 100 1018.7
20260906140036 15 35 12.9 17.7 0.00 0.10 0.00 100 1018.8
20260906134549 15 342 11.3 16.1 0.00 0.18 0.00 100 1018.7
20260906133039 15 345 11.3 22.5 0.00 0.18 0.00 100 1018.5
20260906131539 14 18 25.7 41.8 0.00 0.18 0.00 100 1018.4
20260906130035 14 17 8.0 16.1 0.00 0.18 0.00 100 1018.7
20260906124533 14 345 11.3 22.5 0.00 0.18 0.00 100 1019.0
20260906123052 14 36 17.7 24.1 0.00 0.18 0.00 100 1018.5
20260906121541 13 26 17.7 22.5 0.00 0.18 0.00 100 1018.5
20260906120035 13 32 9.7 16.1 0.00 0.18 0.00 100 1018.8
20260906114536 13 20 11.3 17.7 0.00 0.18 0.00 100 1019.1
20260906113043 13 16 12.9 22.5 0.00 0.18 0.00 100 1018.9
20260906111538 13 11 14.5 22.5 0.00 0.18 0.00 100 1019.0
20260906110035 13 16 16.1 25.7 0.00 0.18 0.00 100 1018.9
20260906104536 13 32 12.9 20.9 0.00 0.18 0.00 100 1019.0
20260906103047 13 22 11.3 19.3 0.00 0.18 0.00 100 1019.1
20260906101533 14 18 17.7 25.7 0.00 0.18 0.00 100 1019.1
20260906100038 14 23 17.7 27.4 0.00 0.18 0.00 100 1019.3
20260906094536 14 28 17.7 32.2 0.00 0.18 0.00 100 1019.1
20260906093039 14 15 17.7 30.6 0.00 0.18 0.00 100 1019.2
20260906091533 14 5 16.1 29.0 0.00 0.18 0.00 100 1019.5
20260906090056 15 332 17.7 33.8 0.00 0.18 0.00 100 1019.9
20260906084538 13 347 19.3 32.2 0.00 0.18 0.00 100 1020.2
20260906083038 14 307 12.9 27.4 0.00 0.18 0.00 100 1020.2
20260906081534 14 29 19.3 25.7 0.00 0.18 0.00 100 1019.8
20260906080038 14 37 14.5 25.7 0.00 0.18 0.00 100 1019.6
20260906074540 14 13 16.1 24.1 0.00 0.18 0.00 100 1019.6
20260906073040 14 336 11.3 27.4 0.00 0.18 0.00 100 1019.8
20260906071536 15 18 16.1 29.0 0.00 0.18 0.00 100 1019.8
20260906070041 15 25 19.3 25.7 0.00 0.18 0.00 100 1020.0
20260906064535 15 345 16.1 29.0 0.00 0.18 0.00 100 1020.6
20260906063045 14 21 16.1 30.6 0.00 0.18 0.00 100 1020.5
20260906061538 14 39 16.1 29.0 0.00 0.18 0.00 100 1020.3
20260906060039 13 27 17.7 25.7 0.00 0.18 0.00 100 1020.4
20260906054537 13 32 16.1 24.1 0.00 0.18 0.18 100 1020.5
20260906053037 13 338 16.1 22.5 0.00 0.18 0.18 100 1020.2
20260906051552 13 8 17.7 27.4 0.00 0.18 0.18 100 1020.3
20260906050041 13 32 20.9 30.6 0.00 0.18 0.18 100 1020.1
20260906044541 14 18 16.1 25.7 0.00 0.18 0.18 100 1021.0
20260906043047 13 17 19.3 30.6 0.03 0.18 0.18 100 1020.0
20260906041536 13 345 20.9 29.0 0.08 0.18 0.18 100 1019.5
20260906040038 14 25 22.5 30.6 0.08 0.18 0.18 100 1019.6
20260906034540 14 33 20.9 29.0 0.08 0.18 0.18 100 1019.9
20260906033037 15 1 12.9 25.7 0.05 0.15 0.15 100 1020.6
20260906031539 16 326 17.7 27.4 0.00 0.10 0.10 30 1021.2
20260906030034 16 5 22.5 32.2 0.00 0.10 0.10 30 1019.2
20260906024534 15 19 22.5 37.0 0.00 0.10 0.10 31 1018.7
20260906023037 16 18 19.3 37.0 0.00 0.10 0.10 34 1018.4
20260906021535 16 30 24.1 40.2 0.00 0.10 0.10 40 1018.4
20260906020039 17 13 19.3 29.0 0.00 0.10 0.10 47 1018.3
20260906014535 17 47 19.3 27.4 0.00 0.10 0.10 51 1018.2
20260906013055 18 29 17.7 24.1 0.00 0.10 0.10 52 1018.2
20260906011545 18 32 17.7 24.1 0.00 0.10 0.10 53 1018.2
20260906010038 18 32 19.3 27.4 0.00 0.10 0.10 52 1018.3
20260906004534 19 29 20.9 29.0 0.00 0.10 0.10 52 1018.4
20260906003041 20 32 22.5 32.2 0.00 0.10 0.10 52 1018.5
20260906001540 20 33 25.7 33.8 0.00 0.10 0.10 51 1018.3
20260906000037 20 42 22.5 32.2 0.00 0.10 0.10 50 1018.3
20260905234535 20 32 17.7 24.1 0.00 0.10 0.10 51 1018.7
20260905233043 21 46 14.5 22.5 0.00 0.10 0.10 49 1018.6